839,2014-06-07 13:05:08,1402146308,60.65273,-6.3806,7,1,2001-00-00 12:05:57,,10.007,32,10.9,0,0,60.5736,-6.381,20,5
28,2014-05-04 18:06:22,1399226782,59.80046,-5.63967,1,5,2014-05-04 18:05:43,1399226743,13.017,12,11.2,0,0,59.7932,-5.7032,74,3
29,2014-05-04 19:05:10,1399230310,59.78248,-4.49157,95,1,2014-05-04 19:05:11,1399230311,9.878,12,11.2,0,0,59.8221,-5.7234,3,5
30,2014-05-04 20:05:10,1399233910,59.79226,-8.65407,186,2,2014-05-04 20:05:33,1399233933,9.921,12,11.2,0,0,59.8169,-5.7068,3,5
31,2014-05-04 21:05:11,1399237511,59.80046,-5.63967,2,1,2014-05-04 21:05:08,1399237508,9.964,44,11.2,0,0,59.8143,-5.6893,3,5
32,2014-05-04 22:05:13,1399241113,59.69004,-8.70294,184,1,2014-05-04 22:05:11,1399241111,9.921,44,11.2,0,0,59.8141,-5.6673,3,3
33,2014-05-04 23:05:21,1399244721,59.76958,-5.63268,6,1,2014-05-04 23:05:11,1399244711,9.921,44,11.2,0,0,59.8153,-5.6458,3,4
34,2014-05-05 00:05:42,1399248342,59.81851,-5.63967,3,1,2014-05-05 00:05:12,1399248312,9.835,44,11.2,0,0,59.8169,-5.6216,21,4
35,2014-05-05 01:05:33,1399251933,59.77261,-5.56183,4,2,2014-05-05 01:05:20,1399251920,9.792,37,11.1,0,0,59.8191,-5.6001,18,3
36,2014-05-05 02:05:13,1399255513,59.8471,-4.92956,77,3,2014-05-05 02:05:19,1399255519,9.749,37,11.2,0,0,59.8219,-5.5801,3,5
37,2014-05-05 03:05:28,1399259128,59.8494,-5.64669,3,0,2014-05-05 03:05:06,1399259106,9.792,37,11.2,0,0,59.8253,-5.5637,19,5
38,2014-05-05 04:05:43,1399262743,59.86484,-4.43156,92,0,2014-05-05 04:05:02,1399262702,9.749,37,11.2,0,0,59.8291,-5.5516,35,5
39,2014-05-05 05:05:12,1399266312,59.85244,-5.57566,5,1,2014-05-05 05:05:11,1399266311,9.749,40,11.2,0,0,59.8325,-5.541,3,5
40,2014-05-05 06:05:12,1399269912,59.85543,-5.50462,15,0,2014-05-05 06:05:06,1399269906,9.749,40,11.2,0,0,59.8351,-5.5309,3,5
41,2014-05-05 07:05:15,1399273515,59.82454,-5.49778,1,1,2014-05-05 07:05:02,1399273502,9.792,40,11.2,0,0,59.8364,-5.52,3,5
42,2014-05-05 08:05:46,1399277146,59.82154,-5.56874,2,0,2014-05-05 08:05:13,1399277113,9.792,40,11.2,0,0,59.8368,-5.505,40,3
43,2014-05-05 09:05:30,1399280730,59.85543,-5.50462,8,0,2014-05-05 09:05:59,1399280759,9.792,41,11.2,0,0,59.8371,-5.4884,20,3
44,2014-05-05 10:05:13,1399284313,59.85543,-5.50462,8,0,2014-05-05 10:05:10,1399284310,9.792,41,11.2,0,0,59.8383,-5.472,3,5
44,2014-05-05 10:05:24,1399284324,59.85543,-5.50462,7,0,2014-05-05 10:05:10,1399284310,9.792,41,11.2,0,0,59.8383,-5.472,18,3
45,2014-05-05 11:05:12,1399287912,59.82749,-5.42681,4,-1,2014-05-05 11:05:34,1399287934,9.835,41,11.2,0,0,59.8407,-5.452,3,5
46,2014-05-05 12:06:03,1399291563,59.83041,-5.35583,3,2,2014-05-05 12:05:13,1399291513,9.835,41,11.2,0,0,59.8449,-5.4297,53,5
47,2014-05-05 13:05:14,1399295114,59.86132,-5.36249,5,2,2014-05-05 13:05:12,1399295112,9.835,37,11.1,0,0,59.8499,-5.4068,3,1
48,2014-05-05 14:05:15,1399298715,59.83041,-5.35583,4,4,2014-05-05 14:05:10,1399298710,9.835,37,11.2,0,0,59.8547,-5.3842,3,5
49,2014-05-05 15:05:32,1399302332,60.04914,-8.43486,197,6,2014-05-05 15:05:12,1399302312,9.835,37,11.2,0,0,59.8585,-5.3663,18,5
50,2014-05-05 16:05:21,1399305921,59.8642,-5.2914,2,2,2014-05-05 16:05:15,1399305915,9.835,37,11.1,0,0,59.8618,-5.3529,3,4
51,2014-05-05 17:05:13,1399309513,59.99619,-7.76517,150,1,2014-05-05 17:05:42,1399309542,9.835,36,11.1,0,0,59.8642,-5.3421,3,5
52,2014-05-05 18:05:21,1399313121,59.86132,-5.36249,1,1,2014-05-05 18:05:10,1399313110,9.835,36,11.2,0,0,59.8655,-5.3331,3,5
53,2014-05-05 19:05:14,1399316714,59.95661,-7.03619,134,3,2014-05-05 19:05:43,1399316743,9.835,36,11.2,0,0,59.8671,-5.3256,3,3
54,2014-05-05 20:05:11,1399320311,59.74635,-11.25406,339,1,2014-05-05 20:05:04,1399320304,9.835,36,11.2,0,0,59.8689,-5.3177,3,5
55,2014-05-05 21:05:12,1399323912,59.83328,-5.28482,5,1,2014-05-05 21:05:15,1399323915,9.835,37,11.2,0,0,59.8711,-5.3058,3,5
56,2014-05-05 22:05:15,1399327515,59.83328,-5.28482,12,1,2014-05-05 22:05:30,1399327530,9.835,37,11.2,0,0,59.8748,-5.2918,3,4
57,2014-05-05 23:05:12,1399331112,59.8642,-5.2914,5,1,2014-05-05 23:05:06,1399331106,9.835,37,11.2,0,0,59.8797,-5.2739,3,5
58,2014-05-06 00:05:14,1399334714,59.81483,-7.79728,160,6,2014-05-06 00:05:01,1399334701,9.835,37,11.2,0,0,59.8853,-5.2517,3,5
59,2014-05-06 01:05:15,1399338315,59.86704,-5.22029,2,3,2014-05-06 01:05:13,1399338313,9.792,43,11.1,0,0,59.888,-5.228,3,4
60,2014-05-06 02:05:12,1399341912,59.7896,-7.14269,128,1,2014-05-06 02:05:07,1399341907,9.792,43,11.1,0,0,59.8898,-5.2064,3,5
61,2014-05-06 03:05:11,1399345511,59.86704,-5.22029,2,2,2014-05-06 03:05:42,1399345542,9.792,43,11.2,0,0,59.8941,-5.189,3,5
62,2014-05-06 04:05:46,1399349146,59.97868,-3.94272,175,0,2014-05-06 04:05:13,1399349113,9.749,43,11.2,0,0,59.897,-5.1759,21,5
63,2014-05-06 05:05:09,1399352709,59.92157,-5.08436,1,8,2014-05-06 05:05:22,1399352722,9.749,34,11.1,0,0,59.8999,-5.1668,3,5
64,2014-05-06 06:05:13,1399356313,59.95635,-4.08562,91,0,2014-05-06 06:05:09,1399356309,9.749,34,11.2,0,0,59.903,-5.1602,3,4
65,2014-05-06 07:05:12,1399359912,59.86985,-5.14917,6,4,2014-05-06 07:05:02,1399359902,9.749,34,11.2,0,0,59.9053,-5.1571,3,3
66,2014-05-06 08:05:12,1399363512,59.9188,-5.15558,9,186,2014-05-06 08:05:09,1399363509,9.792,34,11.2,0,0,59.9073,-5.1524,3,5
67,2014-05-06 09:05:10,1399367110,59.9188,-5.15558,4,187,2014-05-06 09:05:33,1399367133,9.792,40,11.2,0,0,59.9107,-5.1459,3,5
68,2014-05-06 10:05:19,1399370719,59.88787,-5.14917,6,189,2014-05-06 10:05:10,1399370710,9.835,40,11.1,0,0,59.9141,-5.1364,3,5
69,2014-05-06 11:05:13,1399374313,59.92157,-5.08436,2,190,2014-05-06 11:05:08,1399374308,9.878,40,11.2,0,0,59.9201,-5.1234,3,5
70,2014-05-06 12:05:12,1399377912,59.9188,-5.15558,2,190,2014-05-06 12:05:44,1399377944,10.007,40,11.2,0,0,59.923,-5.1062,3,5
71,2014-05-06 13:05:13,1399381513,59.9188,-5.15558,2,2,2014-05-06 13:05:12,1399381512,10.007,44,11.1,0,0,59.9275,-5.0873,3,5
72,2014-05-06 14:05:11,1399385111,59.92431,-5.01311,2,1,2014-05-06 14:05:40,1399385140,10.136,44,11.2,0,0,59.9326,-5.0691,3,5
73,2014-05-06 15:05:11,1399388711,59.927,-4.94186,3,1,2014-05-06 15:05:01,1399388701,10.136,44,11.2,0,0,59.9385,-5.0537,3,1
74,2014-05-06 16:05:40,1399392340,59.92157,-5.08436,2,1,2014-05-06 16:05:12,1399392312,10.093,44,11.2,0,0,59.9441,-5.0429,23,5
75,2014-05-06 17:05:11,1399395911,59.95253,-5.0907,2,1,2014-05-06 17:05:03,1399395903,10.093,36,11.1,0,0,59.9496,-5.0351,3,5
76,2014-05-06 18:05:18,1399399518,59.92431,-5.01311,2,1,2014-05-06 18:05:43,1399399543,10.179,36,11.1,0,0,59.9548,-5.0293,3,1
77,2014-05-06 19:05:12,1399403112,60.06921,-6.76859,120,2,2014-05-06 19:05:05,1399403105,10.179,36,11.2,0,0,59.9628,-5.0223,3,5
78,2014-05-06 20:05:15,1399406715,59.9705,-5.0907,3,1,2014-05-06 20:05:07,1399406707,10.093,36,11.1,0,0,59.966,-5.0234,3,5
79,2014-05-06 21:05:12,1399410312,59.92431,-5.01311,4,1,2014-05-06 21:05:11,1399410311,10.093,36,11.1,0,0,59.9721,-5.0162,3,5
80,2014-05-06 22:05:13,1399413913,59.95527,-5.01937,2,2,2014-05-06 22:05:09,1399413909,10.093,36,11.2,0,0,59.9778,-5.0047,3,2
81,2014-05-06 23:05:12,1399417512,59.97594,-4.94802,2,2,2014-05-06 23:05:12,1399417512,10.05,36,11.1,0,0,59.9842,-4.9907,3,5
82,2014-05-07 00:05:14,1399421114,59.9786,-4.87666,3,2,2014-05-07 00:05:42,1399421142,10.05,36,11.1,0,0,59.9905,-4.9735,3,5
83,2014-05-07 01:05:22,1399424722,59.97324,-5.01937,1,3,2014-05-07 01:05:02,1399424702,10.05,41,11.1,0,0,59.9978,-4.954,3,5
84,2014-05-07 02:07:41,1399428461,59.81993,-9.16916,249,2,2014-05-07 02:05:06,1399428306,10.007,41,11.1,0,0,60.0037,-4.9313,141,3
85,2014-05-07 03:05:18,1399431918,60.00958,-4.88276,2,3,2014-05-07 03:05:42,1399431942,10.007,41,11.1,0,0,60.0089,-4.9091,3,5
86,2014-05-07 04:05:13,1399435513,59.93699,-6.81435,128,1,2014-05-07 04:05:12,1399435512,9.964,41,11.2,0,0,60.0128,-4.8891,3,4
87,2014-05-07 05:05:08,1399439108,60.00691,-4.95421,2,2,2014-05-07 05:05:14,1399439114,10.007,38,11.1,0,0,60.0159,-4.8749,3,4
88,2014-05-07 06:05:21,1399442721,59.95078,-5.88158,98,1,2014-05-07 06:05:43,1399442743,9.964,38,11.2,0,0,60.0188,-4.8672,3,3
89,2014-05-07 07:05:14,1399446314,60.06114,-4.81732,4,1,2014-05-07 07:05:12,1399446312,9.964,38,11.2,0,0,60.022,-4.8623,3,5
90,2014-05-07 08:05:21,1399449921,60.00958,-4.88276,15,2,2014-05-07 08:05:15,1399449915,9.878,38,11.2,0,0,60.0256,-4.8583,3,5
91,2014-05-07 09:05:13,1399453513,60.03015,-4.81129,2,2,2014-05-07 09:05:12,1399453512,9.921,38,11.1,0,0,60.0288,-4.8542,3,5
92,2014-05-07 10:05:15,1399457115,60.00958,-4.88276,4,4,2014-05-07 10:05:07,1399457107,9.921,38,11.2,0,0,60.0323,-4.8498,3,5
93,2014-05-07 11:05:28,1399460728,60.02752,-4.88276,2,2,2014-05-07 11:05:12,1399460712,9.964,38,11.1,0,0,60.0377,-4.8451,19,5
94,2014-05-07 12:05:14,1399464314,60.01221,-4.81129,2,1,2014-05-07 12:05:06,1399464306,10.007,38,11.2,0,0,60.0464,-4.8337,3,5
95,2014-05-07 13:05:26,1399467926,60.09215,-4.82336,5,2,2014-05-07 13:05:13,1399467913,10.007,36,11.1,0,0,60.0521,-4.8177,3,2
96,2014-05-07 14:05:09,1399471509,60.06114,-4.81732,3,2,2014-05-07 14:05:43,1399471543,10.007,36,11.2,0,0,60.06,-4.7988,3,5
97,2014-05-07 15:05:25,1399475125,60.06373,-4.74575,3,1,2014-05-07 15:05:43,1399475143,10.007,36,11.2,0,0,60.0682,-4.7789,3,5
98,2014-05-07 16:05:17,1399478717,60.06373,-4.74575,3,3,2014-05-07 16:05:12,1399478712,10.007,36,11.2,0,0,60.0763,-4.761,3,5
99,2014-05-07 17:05:12,1399482312,60.06373,-4.74575,10,6,2014-05-07 17:05:13,1399482313,10.007,35,11.1,0,0,60.0847,-4.7456,3,5
100,2014-05-07 18:05:11,1399485911,60.06373,-4.74575,6,1,2014-05-07 18:05:43,1399485943,10.007,35,11.2,0,0,60.0935,-4.7317,3,5
101,2014-05-07 19:05:13,1399489513,60.32706,-8.65254,229,2,2014-05-07 19:05:12,1399489512,10.007,35,11.1,0,0,60.1015,-4.7189,3,5
102,2014-05-07 20:05:36,1399493136,60.06373,-4.74575,2,2,2014-05-07 20:05:12,1399493112,10.007,35,11.2,0,0,60.1098,-4.7075,20,4
103,2014-05-07 21:05:20,1399496720,60.1152,-4.68002,2,2,2014-05-07 21:05:54,1399496754,9.964,32,11.1,0,0,60.1177,-4.6961,3,3
104,2014-05-07 22:05:10,1399500310,60.11772,-4.60834,2,2,2014-05-07 22:05:01,1399500301,9.964,32,11.2,0,0,60.1262,-4.6857,3,3
105,2014-05-07 23:05:50,1399503950,60.09731,-4.68002,4,2,2014-05-07 23:05:43,1399503943,9.921,32,11.1,0,0,60.1326,-4.6741,29,2
106,2014-05-08 00:05:13,1399507513,60.1152,-4.68002,2,2,2014-05-08 00:05:12,1399507512,9.878,32,11.2,0,0,60.1414,-4.6604,3,5
107,2014-05-08 01:05:15,1399511115,60.11772,-4.60834,7,3,2014-05-08 01:05:11,1399511111,9.921,37,11.1,0,0,60.1499,-4.6435,3,4
108,2014-05-08 02:05:15,1399514715,60.1691,-4.54233,5,1,2014-05-08 02:05:44,1399514744,9.878,37,11.1,0,0,60.1618,-4.6221,3,5
109,2014-05-08 03:05:14,1399518314,60.19765,-4.61992,3,7,2014-05-08 03:05:13,1399518313,9.921,37,11.2,0,0,60.173,-4.5997,3,3
110,2014-05-08 04:05:11,1399521911,60.01732,-8.64791,237,3,2014-05-08 04:05:43,1399521943,9.921,37,11.1,0,0,60.1852,-4.575,3,5
111,2014-05-08 05:05:09,1399525509,60.23121,-4.55377,4,2,2014-05-08 05:05:12,1399525512,9.921,35,11.1,0,0,60.1964,-4.5514,3,2
112,2014-05-08 06:05:13,1399529113,60.22072,-5.63878,117,2,2014-05-08 06:05:03,1399529103,9.921,35,11.1,0,0,60.2072,-4.5279,3,5
113,2014-05-08 07:05:13,1399532713,60.2026,-4.47615,2,3,2014-05-08 07:05:12,1399532712,9.964,35,11.1,0,0,60.2165,-4.5069,3,5
114,2014-05-08 08:05:12,1399536312,60.14672,-2.305,135,2,2014-05-08 08:05:01,1399536301,10.007,35,11.1,0,0,60.2256,-4.49,3,5
115,2014-05-08 09:05:15,1399539915,60.20014,-4.54804,2,2,2014-05-08 09:05:03,1399539903,10.05,33,11.1,0,0,60.2341,-4.4765,3,4
116,2014-05-08 10:05:37,1399543537,60.23042,-2.09437,152,2,2014-05-08 10:05:43,1399543543,10.05,33,11.2,0,0,60.2436,-4.4636,18,3
117,2014-05-08 11:06:18,1399547178,60.28256,-4.48743,3,2,2014-05-08 11:05:12,1399547112,10.093,33,11.1,0,0,60.2535,-4.4529,67,3
118,2014-05-08 12:05:13,1399550713,60.25148,-4.48178,5,2,2014-05-08 12:05:00,1399550700,10.093,33,11.1,0,0,60.2644,-4.4403,3,5
119,2014-05-08 13:05:15,1399554315,60.28498,-4.41534,4,2,2014-05-08 13:05:09,1399554309,10.179,34,11.1,0,0,60.2761,-4.4237,3,5
120,2014-05-08 14:05:12,1399557912,60.31365,-4.4931,4,7,2014-05-08 14:05:11,1399557911,10.179,34,11.1,0,0,60.2891,-4.4029,3,5
121,2014-05-08 15:05:13,1399561513,60.28498,-4.41534,8,2,2014-05-08 15:05:33,1399561533,10.136,34,11.1,0,0,60.3041,-4.3786,3,5
122,2014-05-08 16:05:13,1399565113,60.33858,-4.27652,2,2,2014-05-08 16:05:11,1399565111,10.179,34,11.1,0,0,60.3195,-4.3504,3,2
123,2014-05-08 17:05:12,1399568712,60.33858,-4.27652,2,2,2014-05-08 17:05:11,1399568711,10.179,34,11.1,0,0,60.3352,-4.3184,3,5
124,2014-05-08 18:05:12,1399572312,60.31846,-4.34872,2,2,2014-05-08 18:05:42,1399572342,10.179,34,11.1,0,0,60.3505,-4.2843,3,4
125,2014-05-08 19:05:40,1399575940,60.37201,-4.20961,10,2,2014-05-08 19:05:12,1399575912,10.136,34,11.1,0,0,60.3647,-4.2498,22,4
126,2014-05-08 20:05:12,1399579512,60.37428,-4.13729,1,1,2014-05-08 20:05:42,1399579542,10.007,34,11.1,0,0,60.3779,-4.215,3,5
127,2014-05-08 21:05:16,1399583116,60.75446,1.17513,303,1,2014-05-08 21:05:11,1399583111,10.093,38,11.1,0,0,60.389,-4.1821,3,3
128,2014-05-08 22:05:17,1399586717,60.37428,-4.13729,6,2,2014-05-08 22:05:12,1399586712,10.093,38,11.1,0,0,60.399,-4.1486,3,5
129,2014-05-08 23:05:24,1399590324,60.37428,-4.13729,7,2,2014-05-08 23:05:04,1399590304,10.05,38,11.1,0,0,60.4079,-4.1143,3,4
130,2014-05-09 00:05:11,1399593911,60.39425,-4.06495,3,2,2014-05-09 00:05:43,1399593943,10.05,38,11.1,0,0,60.4172,-4.078,3,5
131,2014-05-09 01:05:11,1399597511,60.39425,-4.06495,3,2,2014-05-09 01:05:15,1399597515,10.05,36,11.1,0,0,60.4254,-4.0349,3,3
132,2014-05-09 02:05:11,1399601111,60.42974,-3.9252,3,1,2014-05-09 02:05:07,1399601107,10.05,36,11.1,0,0,60.4351,-3.9947,3,5
133,2014-05-09 03:05:13,1399604713,60.42758,-3.99765,2,2,2014-05-09 03:05:01,1399604701,10.007,36,11.1,0,0,60.4446,-3.9485,3,5
134,2014-05-09 04:05:12,1399608312,60.43186,-3.85273,3,1,2014-05-09 04:05:12,1399608312,10.007,36,11.1,0,0,60.4541,-3.9019,3,1
135,2014-05-09 05:05:10,1399611910,60.43394,-3.78025,2,2,2014-05-09 05:05:09,1399611909,10.007,42,11.1,0,0,60.4634,-3.8537,3,5
136,2014-05-09 06:05:12,1399615512,60.34097,-8.43759,262,2,2014-05-09 06:05:43,1399615543,10.007,42,11.1,0,0,60.4721,-3.8068,3,5
137,2014-05-09 07:05:24,1399619124,60.43394,-3.78025,4,1,2014-05-09 07:05:29,1399619129,10.007,42,11.1,0,0,60.4802,-3.7638,3,5
138,2014-05-09 08:05:52,1399622752,60.54016,-4.52163,90,1,2014-05-09 08:05:07,1399622707,10.007,42,11.1,0,0,60.4876,-3.7232,46,5
139,2014-05-09 09:05:18,1399626318,60.51602,-3.71718,4,3,2014-05-09 09:05:12,1399626312,10.007,35,11.1,0,0,60.4938,-3.6876,3,2
140,2014-05-09 10:05:15,1399629915,60.36899,-1.37773,147,1,2014-05-09 10:05:11,1399629911,10.007,35,11.1,0,0,60.4989,-3.6552,3,5
141,2014-05-09 11:05:08,1399633508,60.52,-3.57179,3,2,2014-05-09 11:05:30,1399633530,10.007,35,11.1,0,0,60.5035,-3.6263,3,5
142,2014-05-09 12:05:12,1399637112,60.45242,-1.01784,156,1,2014-05-09 12:05:58,1399637158,10.093,35,11.1,0,0,60.5085,-3.6013,3,5
143,2014-05-09 13:05:22,1399640722,60.51803,-3.64449,2,1,2014-05-09 13:05:09,1399640709,10.179,34,11.1,0,0,60.5146,-3.5765,3,5
144,2014-05-09 14:05:11,1399644311,60.52193,-3.49908,2,2,2014-05-09 14:05:12,1399644312,10.179,34,11.1,0,0,60.5211,-3.5497,3,2
145,2014-05-09 15:05:12,1399647912,60.52381,-3.42636,1,3,2014-05-09 15:05:43,1399647943,10.179,34,11.1,0,0,60.5287,-3.5184,3,5
146,2014-05-09 16:05:12,1399651512,60.37178,2.1775,317,1,2014-05-09 16:05:13,1399651513,10.179,34,11.1,0,0,60.5368,-3.4861,3,4
147,2014-05-09 17:05:13,1399655113,60.53959,-3.49908,2,2,2014-05-09 17:05:12,1399655112,10.179,38,11.1,0,0,60.5447,-3.454,3,5
148,2014-05-09 18:05:29,1399658729,60.52566,-3.35362,2,1,2014-05-09 18:05:43,1399658743,10.179,38,11.1,0,0,60.552,-3.4211,18,5
149,2014-05-09 19:05:10,1399662310,60.54332,-3.35362,4,2,2014-05-09 19:05:12,1399662312,10.222,38,11.1,0,0,60.5588,-3.3916,3,5
150,2014-05-09 20:05:12,1399665912,60.57268,-3.43072,3,1,2014-05-09 20:05:12,1399665912,10.179,38,11.1,0,0,60.5658,-3.3658,3,5
151,2014-05-09 21:05:18,1399669518,60.54332,-3.35362,12,2,2014-05-09 21:05:43,1399669543,10.136,40,11.1,0,0,60.5723,-3.344,3,5
152,2014-05-09 22:05:21,1399673121,60.57453,-3.35789,2,1,2014-05-09 22:05:12,1399673112,10.136,40,11.1,0,0,60.5785,-3.326,3,5
153,2014-05-09 23:05:22,1399676722,60.57453,-3.35789,3,1,2014-05-09 23:05:03,1399676703,10.136,40,11.1,0,0,60.5849,-3.3112,3,5
154,2014-05-10 00:05:12,1399680312,60.57634,-3.28506,2,3,2014-05-10 00:05:00,1399680300,10.136,40,11.1,0,0,60.5919,-3.2983,3,5
155,2014-05-10 01:05:13,1399683913,60.98097,2.29357,315,1,2014-05-10 01:05:09,1399683909,10.136,30,11.1,0,0,60.5988,-3.2871,3,5
156,2014-05-10 02:05:10,1399687510,60.57634,-3.28506,2,3,2014-05-10 02:05:01,1399687501,10.136,30,11.1,0,0,60.6083,-3.2745,3,4
157,2014-05-10 03:05:13,1399691113,60.62696,-3.2163,2,1,2014-05-10 03:05:12,1399691112,10.136,30,11.1,0,0,60.6182,-3.2605,3,5
158,2014-05-10 04:05:47,1399694747,60.62696,-3.2163,3,2,2014-05-10 04:05:42,1399694742,10.136,30,11.1,0,0,60.6293,-3.2428,36,5
159,2014-05-10 05:05:13,1399698313,60.65642,-3.29344,3,2,2014-05-10 05:05:04,1399698304,10.136,38,11.1,0,0,60.6412,-3.2217,3,5
160,2014-05-10 06:05:12,1399701912,60.62696,-3.2163,7,2,2014-05-10 06:05:12,1399701912,10.136,38,11.1,0,0,60.6533,-3.1974,3,5
161,2014-05-10 07:05:38,1399705538,60.70877,-3.15139,4,2,2014-05-10 07:05:12,1399705512,10.093,38,11.1,0,0,60.6645,-3.1743,27,5
162,2014-05-10 08:05:42,1399709142,60.70703,-3.22452,3,1,2014-05-10 08:05:12,1399709112,10.136,38,11.1,0,0,60.6748,-3.1513,15,2
163,2014-05-10 09:05:16,1399712716,60.67922,-3.07431,2,10,2014-05-10 09:05:43,1399712743,10.136,37,11.1,0,0,60.6844,-3.1318,3,5
164,2014-05-10 10:05:12,1399716312,60.65994,-3.14737,4,2,2014-05-10 10:05:01,1399716301,10.179,37,11.1,0,0,60.6931,-3.1177,3,5
165,2014-05-10 11:05:14,1399719914,60.70877,-3.15139,1,2,2014-05-10 11:05:29,1399719929,10.179,37,11.1,0,0,60.7011,-3.1071,3,5
166,2014-05-10 12:06:00,1399723560,60.67922,-3.07431,2,5,2014-05-10 12:05:30,1399723530,10.179,37,11.1,0,0,60.7096,-3.1003,46,5
167,2014-05-10 13:05:31,1399727131,60.74174,-3.08218,6,2,2014-05-10 13:05:11,1399727111,10.179,34,11.1,0,0,60.7182,-3.0937,20,5
168,2014-05-10 14:05:11,1399730711,60.70703,-3.22452,6,2,2014-05-10 14:05:00,1399730700,10.179,34,11.1,0,0,60.7278,-3.0852,3,5
169,2014-05-10 15:05:13,1399734313,60.70877,-3.15139,2,2,2014-05-10 15:05:12,1399734312,10.179,34,11.1,0,0,60.7385,-3.0762,3,5
170,2014-05-10 16:05:13,1399737913,60.74174,-3.08218,3,2,2014-05-10 16:05:06,1399737906,10.136,34,11.1,0,0,60.7509,-3.0641,3,5
171,2014-05-10 17:05:25,1399741525,60.74341,-3.00893,5,2,2014-05-10 17:05:27,1399741527,10.093,35,11.1,0,0,60.764,-3.046,3,5
172,2014-05-10 18:05:10,1399745110,60.75928,-3.08218,9,2,2014-05-10 18:05:30,1399745130,10.093,35,11.1,0,0,60.7758,-3.0239,3,5
173,2014-05-10 19:05:13,1399748713,60.79385,-2.93944,2,2,2014-05-10 19:05:09,1399748709,10.093,35,11.1,0,0,60.7868,-3.0033,3,5
174,2014-05-10 20:05:51,1399752351,60.79223,-3.01279,1,2,2014-05-10 20:05:47,1399752347,10.093,35,11.1,0,0,60.7987,-2.9841,43,5
175,2014-05-10 21:05:28,1399755928,60.79385,-2.93944,3,2,2014-05-10 21:05:01,1399755901,10.05,41,11.1,0,0,60.8088,-2.9654,20,4
176,2014-05-10 22:05:40,1399759540,60.82675,-2.86975,1,2,2014-05-10 22:05:09,1399759509,10.05,41,11.1,0,0,60.8167,-2.9532,21,4
177,2014-05-10 23:07:01,1399763221,60.95378,-0.59066,145,3,2014-05-10 23:05:03,1399763103,10.05,41,11.1,0,0,60.7746,-3.0654,110,3
178,2014-05-11 00:05:14,1399766714,60.84102,-3.01665,2,2,2014-05-11 00:05:02,1399766702,10.007,41,11.1,0,0,60.8322,-2.9397,3,5
179,2014-05-11 01:05:16,1399770316,60.79544,-2.86607,20,2,2014-05-11 01:05:12,1399770312,10.007,48,11.1,0,0,60.8397,-2.938,3,1
180,2014-05-11 02:05:11,1399773911,60.87556,-2.87344,3,2,2014-05-11 02:05:13,1399773913,10.007,48,11.1,0,0,60.8481,-2.9357,3,5
181,2014-05-11 03:05:25,1399777525,60.87396,-2.94699,6,2,2014-05-11 03:05:31,1399777531,9.964,48,11.1,0,0,60.8586,-2.9333,3,5
182,2014-05-11 04:05:22,1399781122,60.84424,-2.86975,3,2,2014-05-11 04:05:12,1399781112,9.964,48,11.1,0,0,60.8694,-2.9271,3,5
183,2014-05-11 05:05:19,1399784719,60.92434,-2.87714,5,1,2014-05-11 05:05:12,1399784712,10.007,36,11.1,0,0,60.881,-2.9165,3,2
184,2014-05-11 06:06:44,1399788404,60.84265,-2.94321,11,3,2014-05-11 06:05:14,1399788314,9.964,36,11.1,0,0,60.8935,-2.9042,96,3
185,2014-05-11 07:05:26,1399791926,60.92434,-2.87714,2,3,2014-05-11 07:05:13,1399791913,9.964,36,11.1,0,0,60.9056,-2.8932,3,4
186,2014-05-11 08:05:12,1399795512,61.1216,-6.39758,201,2,2014-05-11 08:05:20,1399795520,9.964,36,11.1,0,0,60.9173,-2.8855,3,5
187,2014-05-11 09:05:20,1399799120,60.92275,-2.95078,1,4,2014-05-11 09:05:47,1399799147,9.964,54,11.1,0,0,60.9291,-2.8798,3,5
188,2014-05-11 10:05:28,1399802728,61.12852,-6.24999,200,2,2014-05-11 10:05:15,1399802715,9.921,54,11.1,0,0,60.9394,-2.8774,18,4
189,2014-05-11 11:05:23,1399806323,60.9731,-2.88084,6,2,2014-05-11 11:05:13,1399806313,9.921,54,11.1,0,0,60.9497,-2.8807,3,4
190,2014-05-11 12:05:12,1399809912,60.94905,-3.17574,74,2,2014-05-11 12:05:13,1399809913,9.964,54,11.1,0,0,60.9597,-2.8902,3,5
191,2014-05-11 13:05:09,1399813509,61.00445,-2.88456,4,2,2014-05-11 13:05:02,1399813502,9.964,40,11.1,0,0,60.969,-2.9009,3,3
192,2014-05-11 14:05:12,1399817112,60.98184,-2.43822,79,2,2014-05-11 14:05:09,1399817109,10.007,40,11.1,0,0,60.9781,-2.9136,3,4
193,2014-05-11 15:06:39,1399820799,60.95408,-2.95458,8,2,2014-05-11 15:05:44,1399820744,10.007,40,11.1,0,0,60.9889,-2.9256,90,3
194,2014-05-11 16:05:12,1399824312,61.00445,-2.88456,3,3,2014-05-11 16:05:12,1399824312,10.007,40,11.1,0,0,60.9996,-2.9361,3,5
195,2014-05-11 17:05:08,1399827908,61.00445,-2.88456,2,2,2014-05-11 17:05:13,1399827913,10.007,43,11.1,0,0,61.0115,-2.9449,3,2
196,2014-05-11 18:05:11,1399831511,60.90422,0.73736,211,2,2014-05-11 18:05:19,1399831519,10.007,43,11.1,0,0,61.0239,-2.9533,3,5
197,2014-05-11 19:05:29,1399835129,61.08296,-2.96604,8,2,2014-05-11 19:05:12,1399835112,10.007,43,11.1,0,0,61.0365,-2.9622,21,5
198,2014-05-11 20:05:12,1399838712,61.05159,-2.96221,2,2,2014-05-11 20:05:13,1399838713,10.007,43,11.1,0,0,61.0494,-2.9739,3,5
199,2014-05-11 21:05:12,1399842312,61.07963,-3.11406,69,2,2014-05-11 21:05:14,1399842314,9.964,41,11.1,0,0,61.0613,-2.9886,3,5
200,2014-05-11 22:05:09,1399845909,61.03257,-3.03613,5,1,2014-05-11 22:05:13,1399845913,9.964,41,11.1,0,0,61.0716,-3.0071,3,5
201,2014-05-11 23:05:20,1399849520,61.09198,-2.52176,121,2,2014-05-11 23:05:09,1399849509,9.964,41,11.1,0,0,61.0809,-3.0316,3,4
202,2014-05-12 00:05:12,1399853112,61.04995,-3.03613,3,5,2014-05-12 00:05:03,1399853103,9.921,41,11.1,0,0,61.0883,-3.0621,3,5
203,2014-05-12 01:05:25,1399856725,61.07963,-3.11406,3,2,2014-05-12 01:05:45,1399856745,9.878,40,11.1,0,0,61.0948,-3.0987,17,2
204,2014-05-12 02:05:09,1399860309,61.07963,-3.11406,2,1,2014-05-12 02:05:21,1399860321,9.878,40,11.1,0,0,61.1019,-3.1388,3,4
205,2014-05-12 03:05:13,1399863913,61.35521,0.52358,211,4,2014-05-12 03:05:02,1399863902,9.878,40,11.1,0,0,61.1101,-3.178,3,4
206,2014-05-12 04:05:42,1399867542,61.10751,-3.26626,2,1,2014-05-12 04:05:09,1399867509,9.878,40,11.1,0,0,61.1193,-3.2158,26,1
207,2014-05-12 05:05:46,1399871146,61.12661,-3.19218,2,1,2014-05-12 05:05:17,1399871117,9.835,36,11.1,0,0,61.13,-3.2499,18,1
208,2014-05-12 06:05:12,1399874712,61.158,-3.19631,2,3,2014-05-12 06:05:23,1399874723,9.835,36,11.1,0,0,61.143,-3.2809,3,5
209,2014-05-12 07:05:10,1399878310,61.15441,-3.34465,2,2,2014-05-12 07:05:11,1399878311,9.878,36,11.1,0,0,61.1547,-3.309,3,5
210,2014-05-12 08:05:18,1399881918,61.2031,-3.34899,11,2,2014-05-12 08:05:09,1399881909,9.878,36,11.1,0,0,61.1662,-3.3387,3,5
211,2014-05-12 09:05:10,1399885510,61.2031,-3.34899,5,2,2014-05-12 09:05:42,1399885542,9.878,46,11.1,0,0,61.1767,-3.3697,3,5
212,2014-05-12 10:05:16,1399889116,61.26398,-5.37671,126,2,2014-05-12 10:05:12,1399889112,9.878,46,11.1,0,0,61.1852,-3.4046,3,4
213,2014-05-12 11:05:10,1399892710,61.20125,-3.42324,3,2,2014-05-12 11:05:03,1399892703,9.921,46,11.1,0,0,61.1918,-3.4467,3,5
214,2014-05-12 12:05:12,1399896312,61.29271,-5.07961,105,4,2014-05-12 12:05:44,1399896344,9.964,46,11.1,0,0,61.1969,-3.496,3,5
215,2014-05-12 13:05:14,1399899914,61.2288,-3.57633,2,2,2014-05-12 13:05:42,1399899942,9.964,41,11.1,0,0,61.2018,-3.5516,3,5